Flag for India Weather past 2 weeks in Nãgpur, Maharashtra, India

Now
104 °F

Scattered clouds.


Feels Like: 104 °F
Forecast: 75 / 106 °F
Wind: 3 mph from Northeast

Location: Nagpur Sonegaon

Current Time: Apr 25, 2015 at 3:27:45 PM

Latest Report: Apr 25, 2015 at 2:40 PM


Visibility: 3 mi

Pressure: 29.68 "Hg

Humidity: 21%

Dew point: 57 °F

Location of NãgpurLocation

Historic Weather in Nãgpur — Graph

°F

Nãgpur temperature yesterday

Maximum temperature yesterday: 106 °F (at 2:10 PM)
Minimum temperature yesterday: 75 °F (at 4:40 AM)
Average temperature yesterday: 93 °F

Past Weeks' High & Low Weather Summary

 TemperatureHumidityPressure
High111 °F (Apr 19, 4:10 PM)94% (Apr 14, 6:40 AM)30.04 "Hg (Apr 14, 6:40 AM)
Low63 °F (Apr 13, 6:10 AM)14% (Apr 20, 5:40 PM)29.65 "Hg (Apr 18, 4:10 PM)
Average88 °F46%29.83 "Hg
* Reported Apr 10 1:40 PM — Apr 25 1:40 PM, Nãgpur, Weather by CustomWeather, © 2015

Note: Actual official high and low records may vary slightly from our data, if they occured in-between our weather recording intervals... More about our weather records

Advertising

Nãgpur weather history for previous 24 hours

 ConditionsComfort  
Time TempWeatherWind HumidityBarometerVisibility
1:40 PM
Sat, Apr 25
108 °FScattered clouds.5 mph18%29.71 "Hg4 mi
1:10 PM104 °FPassing clouds.6 mph20%29.74 "Hg4 mi
12:40 PM102 °FPassing clouds.3 mph21%29.77 "Hg4 mi
11:40 AM100 °FPassing clouds.6 mph25%29.80 "Hg4 mi
10:40 AM99 °FClear.5 mph35%29.83 "Hg4 mi
10:10 AM93 °FPassing clouds.6 mph44%29.83 "Hg4 mi
9:40 AM90 °FHaze.6 mph49%29.83 "Hg3 mi
8:40 AM86 °FHaze.8 mph59%29.83 "Hg3 mi
7:10 AM79 °FScattered clouds.5 mph70%29.83 "Hg2 mi
5:40 AM75 °FPassing clouds.2 mph65%29.80 "Hg2 mi
5:10 AM77 °FPassing clouds.No wind44%29.77 "Hg2 mi
3:10 AM79 °FPassing clouds.9 mph42%29.74 "Hg2 mi
2:40 AM79 °FHaze.6 mph70%29.74 "Hg2 mi
1:40 AM81 °FHaze.7 mph51%29.74 "Hg2 mi
11:10 PM
Fri, Apr 24
84 °FHaze.5 mph66%29.74 "Hg2 mi
10:40 PM82 °FHaze.3 mph66%29.74 "Hg3 mi
10:10 PM86 °FHaze.No wind33%29.74 "Hg3 mi
9:40 PM86 °FHaze.No wind33%29.74 "Hg3 mi
9:10 PM90 °FHaze.3 mph29%29.74 "Hg3 mi
8:10 PM95 °FHaze.5 mph26%29.71 "Hg3 mi
7:40 PM95 °FHaze.5 mph26%29.71 "Hg3 mi
6:10 PM102 °FPassing clouds.6 mph21%29.68 "Hg4 mi
5:40 PM104 °FPassing clouds.8 mph19%29.68 "Hg4 mi
5:10 PM106 °FPassing clouds.3 mph18%29.68 "Hg4 mi
4:40 PM104 °FPassing clouds.6 mph19%29.68 "Hg4 mi
4:10 PM106 °FPassing clouds.5 mph19%29.68 "Hg4 mi
3:40 PM104 °FPassing clouds.8 mph20%29.68 "Hg4 mi
3:10 PM106 °FScattered clouds.6 mph19%29.68 "Hg4 mi
Weather by CustomWeather, © 2015

See weather overviewHow to use our weather pages